TRA2V EHAM-LGAV

Flight info

Callsign TRA2V
Flight time N/A
Altitude 33000
Route RENDI2N EDUPO Z739 MISGO DOJOH DODEN NEGIX DINKU M867 XERUM BAVAX RADIZ NIPEL ELTIB/N0456F350 RETRA PINDO SIGFO UM749 ROPOX ROPOX1Q
Aircraft B738/M-SDGILRWY/SB1

Departure

Time 2026-04-30 08:19
Airport Amsterdam Airport Schiphol (EHAM)

Arrival

Time N/A
Airport Athens Eleftherios Venizelos International Airport (LGAV)
Time Latitude Longitude Altitude Speed Heading
2026-04-30 07:31 52.30577 4.76696 -4 ft 0 kts 216°
2026-04-30 07:31 52.30577 4.76697 -4 ft 0 kts 216°
2026-04-30 07:32 52.30577 4.76696 -4 ft 0 kts 216°
2026-04-30 07:32 52.30577 4.76697 -4 ft 0 kts 216°
2026-04-30 07:32 52.30577 4.76696 -4 ft 0 kts 216°
2026-04-30 07:33 52.30577 4.76697 -4 ft 0 kts 216°
2026-04-30 07:33 52.30577 4.76696 -4 ft 0 kts 216°
2026-04-30 07:34 52.30577 4.76697 -4 ft 0 kts 216°
2026-04-30 07:34 52.30577 4.76696 -4 ft 0 kts 216°
2026-04-30 07:35 52.30577 4.76697 -4 ft 0 kts 216°
2026-04-30 07:35 52.30577 4.76696 -4 ft 0 kts 216°
2026-04-30 07:36 52.30577 4.76697 -4 ft 0 kts 216°
2026-04-30 07:54 52.30578 4.76698 -4 ft 1 kts 216°
2026-04-30 07:54 52.30590 4.76712 -4 ft 2 kts 216°
2026-04-30 07:54 52.30602 4.76729 -4 ft 2 kts 236°
2026-04-30 07:55 52.30609 4.76750 -4 ft 2 kts 253°
2026-04-30 07:55 52.30611 4.76774 -4 ft 2 kts 271°
2026-04-30 07:55 52.30609 4.76798 -4 ft 2 kts 290°
2026-04-30 07:55 52.30602 4.76820 -4 ft 2 kts 308°
2026-04-30 07:56 52.30596 4.76832 -4 ft 1 kts 320°
2026-04-30 07:56 52.30591 4.76838 -4 ft 0 kts 321°
2026-04-30 08:05 52.30591 4.76837 -4 ft 0 kts 321°
2026-04-30 08:05 52.30591 4.76838 -4 ft 0 kts 321°
2026-04-30 08:11 52.30591 4.76837 -4 ft 0 kts 321°
2026-04-30 08:11 52.30596 4.76830 -4 ft 4 kts 320°
2026-04-30 08:11 52.30615 4.76830 -4 ft 5 kts 29°
2026-04-30 08:11 52.30670 4.76905 -4 ft 12 kts 45°
2026-04-30 08:12 52.30667 4.77032 -4 ft 14 kts 102°
2026-04-30 08:12 52.30639 4.77240 -4 ft 23 kts 97°
2026-04-30 08:12 52.30651 4.77470 -4 ft 17 kts 80°
2026-04-30 08:12 52.30719 4.77581 -4 ft 19 kts
2026-04-30 08:13 52.30889 4.77604 -4 ft 25 kts
2026-04-30 08:13 52.31054 4.77621 -4 ft 21 kts
2026-04-30 08:13 52.31198 4.77631 -4 ft 19 kts
2026-04-30 08:13 52.31324 4.77646 -4 ft 16 kts
2026-04-30 08:14 52.31428 4.77639 -4 ft 13 kts 341°
2026-04-30 08:14 52.31500 4.77578 -4 ft 10 kts 326°
2026-04-30 08:14 52.31555 4.77440 -4 ft 19 kts 285°
2026-04-30 08:14 52.31567 4.77164 -4 ft 29 kts 269°
2026-04-30 08:15 52.31559 4.76848 -4 ft 25 kts 271°
2026-04-30 08:15 52.31554 4.76581 -4 ft 21 kts 264°
2026-04-30 08:15 52.31545 4.76359 -4 ft 17 kts 268°
2026-04-30 08:15 52.31539 4.76176 -4 ft 14 kts 265°
2026-04-30 08:16 52.31528 4.75996 -3 ft 18 kts 263°
2026-04-30 08:16 52.31521 4.75750 -3 ft 25 kts 266°
2026-04-30 08:16 52.31519 4.75481 -3 ft 22 kts 269°
2026-04-30 08:16 52.31509 4.75237 -3 ft 20 kts 267°
2026-04-30 08:17 52.31505 4.75006 -3 ft 22 kts 268°
2026-04-30 08:17 52.31498 4.74719 -2 ft 17 kts 267°
2026-04-30 08:17 52.31501 4.74637 -2 ft 2 kts 344°
2026-04-30 08:17 52.31558 4.74659 -3 ft 10 kts 358°
2026-04-30 08:18 52.31620 4.74661 -3 ft 5 kts
2026-04-30 08:18 52.31667 4.74768 -3 ft 27 kts 90°
2026-04-30 08:18 52.31692 4.75543 -3 ft 107 kts 88°
2026-04-30 08:18 52.31735 4.77138 24 ft 170 kts 88°
2026-04-30 08:19 52.31810 4.79147 690 ft 180 kts 89°
2026-04-30 08:19 52.31862 4.80938 1746 ft 150 kts 84°
2026-04-30 08:19 52.32177 4.82720 1458 ft 179 kts 66°
2026-04-30 08:19 52.32750 4.84521 1625 ft 174 kts 63°
2026-04-30 08:20 52.33445 4.86120 1789 ft 172 kts 64°
2026-04-30 08:20 52.33874 4.87914 1814 ft 170 kts 80°
2026-04-30 08:20 52.33839 4.89875 1982 ft 187 kts 117°
2026-04-30 08:20 52.33141 4.91654 2752 ft 187 kts 126°
2026-04-30 08:21 52.32385 4.93305 3653 ft 179 kts 123°
2026-04-30 08:21 52.31649 4.94945 4204 ft 188 kts 130°
2026-04-30 08:21 52.30575 4.96177 4375 ft 189 kts 141°
2026-04-30 08:21 52.29734 4.97717 4406 ft 183 kts 105°
2026-04-30 08:22 52.29561 4.99754 4436 ft 183 kts 97°
2026-04-30 08:22 52.29218 5.01765 4461 ft 186 kts 112°
2026-04-30 08:22 52.28577 5.03684 4530 ft 197 kts 117°
2026-04-30 08:22 52.27875 5.05646 4588 ft 206 kts 117°
2026-04-30 08:23 52.27150 5.07738 4703 ft 213 kts 116°
2026-04-30 08:23 52.26417 5.09880 4822 ft 222 kts 116°
2026-04-30 08:23 52.25658 5.12096 5137 ft 224 kts 116°
2026-04-30 08:23 52.24904 5.14289 5576 ft 221 kts 117°
2026-04-30 08:24 52.24138 5.16467 5928 ft 222 kts 118°
2026-04-30 08:24 52.23371 5.18645 6232 ft 224 kts 118°
2026-04-30 08:24 52.22590 5.20882 6548 ft 226 kts 118°
2026-04-30 08:24 52.21813 5.23115 6835 ft 228 kts 117°
2026-04-30 08:25 52.21032 5.25361 7158 ft 228 kts 117°
2026-04-30 08:25 52.20250 5.27609 7484 ft 229 kts 117°
2026-04-30 08:25 52.19470 5.29850 7768 ft 230 kts 117°
2026-04-30 08:25 52.18679 5.32115 8060 ft 231 kts 117°
2026-04-30 08:26 52.17858 5.34280 8176 ft 214 kts 122°